Wind_Speed
41 43 44 44 41 39 38 38 37 37 37 38 38 36 34 32 31 28 26 23 20 17 15 13 11 10 10 10 11 12 14 16 18 19 21 23 25 27
45 44 45 46 46 44 41 39 40 40 40 40 39 38 37 36 34 31 28 25 22 19 17 14 12 11 10 10 10 11 13 15 16 18 20 22 24 26
49 49 49 49 50 48 45 43 42 42 42 42 41 40 40 38 36 34 31 28 25 22 19 16 13 11 10 10 10 11 12 14 15 17 19 21 23 25
53 53 52 52 52 52 51 48 45 44 45 44 42 42 42 41 40 38 34 32 28 25 21 17 15 12 11 10 11 12 13 14 16 16 18 19 20 22
57 56 56 55 55 55 54 53 51 48 46 46 44 44 44 43 42 41 38 35 31 28 24 20 17 14 13 12 12 13 14 15 16 16 17 18 19 20
60 59 59 58 58 57 57 56 55 53 50 47 46 47 45 45 44 43 41 38 35 31 28 24 20 17 15 14 14 14 15 15 16 16 17 18 18 19
59 59 59 60 61 60 59 59 58 56 54 50 46 47 48 46 45 45 43 41 38 35 31 27 23 20 17 15 15 15 15 15 16 16 17 17 17 18
55 57 58 60 62 62 61 61 60 59 56 55 51 49 48 47 47 47 45 44 41 38 34 30 26 23 20 17 16 16 15 16 17 17 17 17 17 17
50 52 55 57 60 62 63 62 61 60 59 57 55 51 49 50 48 48 47 45 44 41 38 33 29 25 22 19 18 17 17 16 17 18 18 17 17 18
46 48 50 53 56 59 61 62 62 61 60 58 55 53 51 50 49 49 49 48 46 43 40 35 31 27 25 22 19 18 18 18 18 18 17 17 18 18
41 44 45 47 50 53 57 60 61 62 60 59 58 56 53 50 50 49 49 48 46 43 40 37 33 30 27 24 21 20 19 18 18 17 17 17 17 18
35 39 40 42 45 48 51 55 58 60 60 60 59 58 56 52 50 50 48 48 47 44 41 38 36 32 29 26 23 22 20 19 18 17 16 17 17 17
30 33 37 40 42 43 46 49 52 56 58 58 58 58 57 55 52 49 48 46 46 44 43 41 38 34 31 28 25 23 22 20 18 17 16 16 16 16
26 29 33 36 39 40 42 44 47 50 54 56 56 56 56 55 53 51 48 46 45 45 44 42 40 36 33 30 27 25 22 20 19 18 17 17 17 17
24 26 29 32 34 36 38 41 43 45 48 52 53 54 54 55 54 52 50 47 44 45 44 42 40 38 35 31 28 26 23 21 19 18 18 17 17 17
21 23 25 27 28 30 34 36 38 40 43 46 50 52 53 54 54 53 50 48 46 43 43 43 41 38 36 33 30 26 24 22 21 20 19 18 17 17
19 20 22 23 24 25 27 30 33 36 39 42 46 48 51 53 52 51 50 47 45 44 42 41 41 39 37 34 30 27 25 23 22 21 20 19 18 18
18 19 20 21 22 23 24 26 29 32 36 39 42 44 48 50 51 49 48 46 44 44 42 41 41 39 36 33 30 28 26 24 23 22 20 20 20 19
16 17 19 20 21 22 23 24 26 29 33 37 40 43 45 48 49 49 47 46 44 43 43 42 40 38 36 32 30 29 27 25 24 23 22 21 21 21
15 16 18 19 20 21 22 23 23 25 30 35 40 43 44 45 47 48 47 44 43 43 42 41 39 37 35 33 31 30 28 26 24 24 23 22 21 21
13 14 15 17 18 19 20 21 22 24 27 33 38 42 45 46 46 47 46 43 42 41 39 38 37 36 35 34 32 30 28 27 26 25 24 23 22 21
11 12 13 15 16 17 18 19 21 23 26 31 36 40 43 46 47 46 46 44 42 41 39 36 36 36 35 32 31 30 29 28 28 27 26 25 24 23
10 12 13 14 15 16 18 19 21 22 25 29 33 38 40 43 44 45 44 43 43 42 41 38 36 35 34 32 31 30 29 28 28 27 26 25 25 25
Wind_Direction
257 253 249 246 245 240 236 231 229 226 222 221 218 215 212 210 209 209 209 212 216 219 223 229 235 243 253 260 261 258 257 257 256 255 254 253 253 251
257 254 251 245 243 240 237 233 229 226 222 220 218 215 213 211 210 210 210 212 214 218 222 227 233 243 254 262 266 264 262 262 261 259 258 258 257 257
257 253 250 248 244 241 238 234 231 226 224 221 220 218 215 212 211 211 211 212 215 218 222 228 234 243 254 264 270 270 268 268 267 265 262 261 260 260
255 252 248 246 244 241 239 236 231 227 225 222 220 219 217 215 213 213 212 214 216 218 222 228 235 244 254 265 273 274 273 272 271 270 267 267 266 264
254 250 246 244 242 240 237 236 233 229 226 225 221 219 218 216 216 215 214 215 217 219 222 228 235 243 254 265 273 276 275 275 273 271 270 269 268 265
253 249 245 241 239 237 235 234 233 230 227 226 223 221 219 218 218 217 216 217 218 219 223 228 234 241 252 263 272 275 277 276 273 272 271 269 269 265
250 246 242 239 237 235 233 232 231 231 229 226 224 221 220 219 219 218 218 218 219 220 224 227 232 239 249 260 270 273 275 276 274 273 271 268 268 265
247 243 240 237 234 233 231 230 229 230 229 227 225 223 222 220 220 220 219 219 220 221 224 226 231 237 244 255 265 270 272 274 275 273 269 267 267 265
245 240 238 235 232 231 230 229 228 227 228 227 226 224 223 221 220 220 220 219 220 221 223 226 229 234 241 250 259 266 268 272 273 271 267 264 264 262
241 237 235 232 230 229 228 227 227 225 225 225 223 223 222 221 218 219 220 220 220 221 222 225 228 232 238 246 255 262 266 270 272 270 266 263 261 259
237 233 231 229 227 226 226 226 225 224 224 223 223 222 221 222 221 219 219 219 220 220 221 224 226 231 236 242 249 257 262 266 269 267 263 262 260 259
230 226 225 223 221 221 222 223 224 223 223 222 223 222 223 224 223 220 219 220 220 221 221 223 226 230 234 239 246 253 258 262 267 264 260 258 258 257
222 219 218 217 216 216 218 219 221 222 221 220 221 221 222 223 222 221 221 220 220 221 222 223 225 228 232 237 243 249 255 259 260 258 257 256 254 255
213 212 212 210 211 211 212 214 217 219 220 220 220 221 222 221 221 221 221 219 219 220 221 221 224 227 230 235 240 245 250 253 254 254 256 255 252 253
204 204 204 205 207 209 209 211 214 216 218 219 220 220 220 221 221 221 221 222 222 221 221 222 224 226 229 233 237 242 246 248 249 251 252 252 252 253
196 197 197 199 201 204 206 209 212 214 215 217 217 217 218 219 220 221 222 223 223 221 221 222 224 225 228 230 235 238 241 244 247 249 249 249 250 252
191 192 192 193 194 197 200 203 206 210 212 213 215 216 218 219 220 222 222 221 222 222 224 224 224 224 225 227 231 236 239 242 245 248 247 247 249 251
186 186 185 186 190 192 196 200 203 205 206 207 209 211 214 215 217 218 219 220 221 220 223 222 221 222 223 225 230 234 237 240 244 247 247 249 251 253
177 181 183 185 188 190 193 196 199 202 203 203 203 205 208 211 213 214 216 217 218 218 218 219 220 222 223 225 230 233 235 238 243 246 247 249 252 253
178 180 183 186 189 191 193 195 197 200 200 201 201 201 203 205 208 209 211 211 212 213 214 216 218 221 222 224 229 231 234 238 242 245 247 249 251 252
180 182 185 188 190 193 195 196 198 200 200 200 199 200 201 202 203 205 207 208 208 209 210 212 214 218 221 224 227 231 235 238 242 246 247 248 250 251
188 193 196 197 197 198 199 200 201 202 201 199 198 199 199 200 201 201 202 204 205 207 206 207 211 216 219 223 227 232 235 238 242 245 247 248 249 250
201 205 208 209 209 208 207 205 204 204 203 202 201 199 199 198 198 198 199 201 201 202 204 207 209 213 218 222 227 232 236 240 242 245 247 247 248 249
Height
5725 5729 5733 5737 5741 5746 5750 5755 5762 5768 5774 5779 5784 5790 5796 5801 5807 5812 5816 5820 5824 5828 5831 5833 5835 5837 5838 5840 5841 5842 5844 5845 5847 5848 5850 5852 5855 5857
5712 5716 5720 5725 5730 5735 5740 5745 5752 5758 5764 5770 5776 5782 5788 5794 5800 5805 5809 5815 5819 5822 5826 5828 5830 5832 5834 5835 5836 5837 5838 5840 5841 5842 5844 5846 5848 5849
5698 5702 5707 5711 5717 5723 5729 5735 5742 5748 5755 5761 5768 5774 5779 5786 5792 5798 5803 5808 5813 5817 5820 5823 5825 5827 5829 5830 5831 5832 5833 5834 5835 5837 5838 5840 5841 5843
5681 5686 5691 5697 5703 5709 5716 5723 5730 5737 5744 5751 5759 5765 5770 5777 5783 5790 5796 5801 5806 5811 5815 5818 5820 5822 5824 5825 5826 5827 5828 5829 5830 5831 5832 5834 5835 5836
5661 5667 5674 5680 5688 5695 5702 5710 5717 5725 5733 5741 5749 5755 5760 5767 5774 5781 5788 5794 5799 5804 5808 5812 5815 5817 5819 5820 5821 5822 5823 5824 5825 5826 5827 5828 5829 5829
5640 5646 5654 5662 5670 5678 5687 5695 5703 5712 5721 5729 5737 5744 5751 5758 5765 5772 5780 5786 5792 5797 5802 5806 5809 5811 5814 5815 5816 5817 5818 5819 5820 5820 5821 5822 5823 5824
5619 5625 5633 5642 5651 5661 5670 5680 5688 5698 5707 5716 5725 5732 5740 5748 5756 5763 5771 5777 5783 5789 5794 5799 5803 5806 5808 5810 5811 5812 5813 5814 5814 5815 5816 5816 5817 5818
5598 5605 5613 5622 5631 5642 5653 5664 5674 5684 5694 5704 5712 5721 5730 5739 5746 5754 5761 5769 5775 5781 5787 5792 5797 5800 5802 5804 5805 5807 5808 5808 5809 5810 5811 5811 5812 5813
5579 5586 5593 5603 5613 5625 5636 5647 5658 5669 5680 5691 5700 5710 5718 5728 5736 5744 5751 5758 5766 5772 5779 5785 5789 5793 5796 5798 5800 5801 5802 5803 5804 5805 5805 5806 5807 5808
5561 5569 5577 5586 5597 5608 5619 5631 5642 5654 5667 5678 5688 5698 5707 5715 5723 5732 5739 5747 5756 5764 5771 5777 5782 5786 5789 5792 5794 5796 5797 5798 5799 5799 5800 5801 5802 5803
5546 5554 5563 5572 5582 5593 5604 5617 5628 5639 5650 5663 5674 5683 5694 5703 5711 5720 5729 5738 5746 5755 5763 5769 5774 5778 5782 5785 5788 5790 5791 5792 5793 5794 5795 5796 5797 5798
5534 5542 5551 5560 5568 5578 5590 5601 5613 5625 5637 5649 5661 5671 5682 5692 5701 5710 5719 5728 5737 5745 5753 5760 5766 5771 5775 5778 5781 5784 5786 5787 5788 5789 5790 5791 5792 5793
5525 5532 5541 5550 5558 5568 5578 5589 5600 5612 5624 5636 5648 5659 5670 5681 5691 5700 5709 5719 5728 5737 5744 5750 5757 5763 5768 5772 5775 5778 5780 5781 5782 5784 5785 5786 5787 5788
5518 5526 5533 5541 5550 5559 5569 5579 5590 5601 5613 5625 5637 5648 5660 5671 5681 5691 5700 5709 5718 5727 5734 5741 5748 5755 5760 5764 5768 5771 5774 5775 5777 5778 5780 5781 5782 5784
5515 5521 5528 5536 5544 5553 5562 5571 5581 5592 5603 5615 5627 5638 5649 5660 5671 5680 5690 5699 5708 5717 5725 5733 5740 5747 5753 5758 5762 5765 5767 5769 5771 5773 5775 5776 5778 5779
5514 5520 5526 5533 5540 5548 5556 5565 5574 5584 5594 5605 5616 5628 5639 5649 5660 5671 5681 5690 5700 5708 5716 5724 5732 5739 5745 5750 5755 5758 5761 5764 5766 5767 5769 5771 5772 5774
5515 5520 5526 5532 5538 5545 5552 5560 5568 5577 5586 5596 5607 5618 5628 5639 5650 5661 5671 5681 5691 5700 5709 5717 5724 5731 5737 5743 5747 5751 5755 5758 5760 5761 5763 5765 5767 5769
5516 5521 5526 5531 5537 5543 5550 5556 5563 5571 5580 5589 5599 5609 5619 5630 5641 5651 5662 5672 5682 5692 5700 5708 5716 5723 5730 5736 5741 5745 5749 5751 5754 5756 5758 5760 5761 5763
5517 5522 5526 5531 5537 5542 5548 5554 5560 5566 5574 5582 5592 5601 5611 5621 5632 5643 5653 5664 5674 5684 5692 5700 5708 5716 5723 5729 5734 5738 5742 5745 5747 5749 5752 5754 5755 5757
5520 5524 5527 5532 5536 5541 5546 5551 5557 5562 5569 5576 5585 5594 5604 5614 5624 5635 5645 5656 5666 5676 5685 5693 5701 5709 5716 5722 5726 5730 5734 5738 5741 5743 5745 5747 5749 5750
5523 5526 5529 5533 5536 5540 5545 5549 5554 5559 5564 5571 5579 5588 5597 5607 5617 5627 5638 5648 5658 5668 5678 5687 5695 5701 5707 5713 5719 5723 5728 5731 5733 5736 5738 5741 5743 5744
5525 5527 5530 5533 5536 5539 5543 5547 5551 5556 5561 5568 5575 5583 5591 5600 5610 5620 5631 5641 5652 5662 5671 5679 5686 5693 5700 5706 5712 5716 5720 5723 5726 5728 5731 5734 5736 5738
5525 5527 5529 5532 5535 5537 5540 5544 5549 5553 5558 5564 5570 5578 5586 5595 5604 5614 5624 5635 5645 5655 5663 5671 5679 5686 5693 5699 5704 5709 5712 5716 5719 5722 5724 5727 5729 5731